Torna al catalogo

STARLINK-32034

AttivoComunicazioniVLEO
NORAD 60297·PAYLOAD·🇺🇸 United States

Lanciato Jul 28, 2024 da Cape Canaveral Space Force Station

Loading…

Prossimi Passaggi (prossime 24 ore)

TLE

AggiornatoSource: CelesTrak SupGP

Epoca: Sep 14, 2026, 20:52 UTC

1 60297C 24132V   26257.86993056  .00053586  00000+0  17233-2 0  2575
2 60297  53.1574 252.2887 0001222  95.7806 304.2012 15.31672364    18

Traccia STARLINK-32034 in tempo reale con AllMySat

Download on the App Store